Hourly Data Report for March 07, 2012

All times are specified in Local Standard Time (LST). Add 1 hour to adjust for Daylight Saving Time where and when it is observed.

MIRAMICHI RCS
NEW BRUNSWICK

47°00'34.000" N
65°27'54.000" W
33.00 m
8100989
71744
ACQ

Download Data

Hourly Data (March 2012)
Hourly Data Report for March 7, 2012
TIME Temp Definition
°C
Dew Point Definition
°C
Rel Hum Definition
%
Wind Dir Definition
10's deg

Wind Spd Definition
km/h
Visibility Definition
km
Stn Press Definition
kPa
Hmdx Definition


Wind Chill Definition


Weather Definition


00:00 -15.0 -16.5 88 27 2   102.77   -16 LegendNANA
01:00 -14.6 -16.6 85 27 6   102.81   -19 LegendNANA
02:00 -13.4 -14.9 88 27 9   102.88   -19 LegendNANA
03:00 -15.8 -18.1 82 29 4   102.87   -19 LegendNANA
04:00 -14.4 -15.8 89 27 7   102.88   -19 LegendNANA
05:00 -14.7 -16.4 87 26 6   102.93   -19 LegendNANA
06:00 -17.9 -20.4 81 25 6   102.93   -23 LegendNANA
07:00 -16.2 -18.3 84 27 2   102.95   -18 LegendNANA
08:00 -15.0 -17.1 84 27 6   102.92   -19 LegendNANA
09:00 -10.7 -13.9 77 26 7   102.88   -15 LegendNANA
10:00 -6.8 -12.2 65   0   102.81     LegendNANA
11:00 -4.2 -13.0 50 24 7   102.70   -7 LegendNANA
12:00 -2.5 -14.2 40 23 24   102.59   -9 LegendNANA
13:00 -2.9 -8.8 64 22 13   102.43   -8 LegendNANA
14:00 -0.5 -7.9 57 20 19   102.23   -6 LegendNANA
15:00 0.3 -6.3 61 22 22   102.13     LegendNANA
16:00 1.8 -4.8 62 21 19   102.00     LegendNANA
17:00 2.3 -3.6 65 20 13   101.83     LegendNANA
18:00 3.3 -1.8 69 21 20   101.72     LegendNANA
19:00 3.2 -0.6 76 21 19   101.65     LegendNANA
20:00 2.7 -0.1 82 21 22   101.53     LegendNANA
21:00 2.9 0.3 83 22 24   101.47     LegendNANA
22:00 3.0 0.6 84 22 20   101.43     LegendNANA
23:00 3.2 1.0 85 22 28   101.32     LegendNANA

Notes on Data Quality.

Legend

  • E = Estimated
  • M = Missing
  • NA = Not Available
Date modified: